Location: Newark
(40.4500°N, 15.1500°E)
Time: 02:47:10
(UTC+00:00)

Envisat - Visible Passes

Search period start: 09 December 2019 00:00
Search period end: 19 December 2019 00:00
Orbit: 764 x 766 km, 98.1° (Epoch: 08 December)

Date Brightness Start Highest point End Pass type
(mag) Time Alt. Az. Time Alt. Az. Time Alt. Az.
09 Dec 4.4 05:19:56 10° NNE 05:24:47 43° E 05:29:35 10° S visible
09 Dec 3.1 16:33:54 10° SSE 16:38:49 54° ENE 16:43:47 10° N visible
09 Dec 5.7 18:14:55 10° SW 18:18:10 17° W 18:21:25 10° NW visible
10 Dec 5.8 04:44:07 10° NE 04:47:46 19° E 04:51:22 10° SE visible
10 Dec 4.0 15:58:12 10° ESE 16:02:18 25° ENE 16:06:25 10° NNE visible
10 Dec 4.5 17:36:26 10° SSW 17:41:07 38° W 17:45:50 10° NNW visible
11 Dec 3.0 16:59:11 10° SSE 17:04:16 85° WSW 17:09:22 10° NNW visible
12 Dec 4.9 05:08:50 10° NNE 05:13:26 34° E 05:18:02 10° SSE visible
12 Dec 3.3 16:22:50 10° SE 16:27:36 43° ENE 16:32:23 10° N visible
12 Dec 5.4 18:02:56 10° SW 18:06:46 22° W 18:10:39 10° NW visible
13 Dec 6.0 04:33:26 10° NE 04:36:22 15° E 04:39:17 10° SE visible
13 Dec 4.0 17:24:54 10° S 17:29:47 48° W 17:34:42 10° NNW visible
14 Dec 3.7 05:33:59 10° NNE 05:39:02 61° E 05:44:02 10° S visible
14 Dec 2.9 16:47:56 10° SSE 16:52:59 76° ENE 16:58:05 10° N visible
14 Dec 6.1 18:30:43 10° WSW 18:32:33 12° W 18:34:23 10° WNW visible
15 Dec 5.3 04:57:48 10° NE 05:02:06 27° E 05:06:21 10° SSE visible
15 Dec 3.6 16:11:51 10° SE 16:16:23 34° ENE 16:20:56 10° N visible
15 Dec 5.1 17:51:09 10° SSW 17:55:25 27° W 17:59:43 10° NW visible
16 Dec 6.2 04:23:11 10° ENE 04:24:57 12° E 04:26:44 10° ESE visible
16 Dec 3.5 17:13:28 10° S 17:18:28 61° WSW 17:23:31 10° NNW visible
17 Dec 4.2 05:22:48 10° NNE 05:27:43 47° E 05:32:36 10° S visible
17 Dec 3.0 16:36:46 10° SSE 16:41:44 60° ENE 16:46:44 10° N visible
17 Dec 5.9 18:18:11 10° SW 18:21:08 15° W 18:24:06 10° NW visible
18 Dec 5.7 04:46:53 10° NE 04:50:44 21° E 04:54:33 10° SE visible
18 Dec 3.9 16:00:57 10° SE 16:05:11 28° ENE 16:09:27 10° N visible
18 Dec 4.6 17:39:28 10° SSW 17:44:03 34° W 17:48:41 10° NNW visible
